Regional Weather Roundup
Issued by NWS Wakefield, VA

Home | Current Version | Previous Version | Graphics & Text | Print | Product List | Glossary On
Versions: 1 2 3 4 5 6 7 8 9 10 11 12 13 14 15 16 17 18 19 20 21 22 23 24 25 26 27 28 29 30 31 32 33 34 35 36 37 38 39 40 41 42 43 44 45 46 47 48 49 50
000
ASUS41 KAKQ 292310
RWRAKQ

REGIONAL WEATHER ROUNDUP
NATIONAL WEATHER SERVICE WAKEFIELD VA
700 PM EDT TUE JUL 29 2014

Note: "fair" indicates few or no clouds below 12,000 feet with no
significant weather and/or obstructions to visibility. * = Denotes
station may not report precipitation (e.g., rain,snow,etc.),
thunder or fog.

VAZ042-051-052>054-056-300000-
NORTHERN VIRGINIA

CITY           SKY/WX    TMP DP  RH WIND       PRES   REMARKS
WASH NATIONAL  MOSUNNY   74  48  39 NW9       29.98R
DULLES         MOSUNNY   70  42  36 NW17G23   29.99R
FORT BELVOIR   NOT AVBL
QUANTICO       PTSUNNY   74  49  41 N10       29.99R
FREDERICKSBRG* SUNNY     75  53  46 N7        29.97R
STAFFORD*      SUNNY     72  51  47 N8        30.02R
WARRENTON      SUNNY     73  58  59 N8        29.99R
CULPEPER*      SUNNY    N/A N/A N/A N7        29.99R
MANASSAS*      NOT AVBL
LEESBURG*      MOSUNNY   70  50  49 NW10      30.00R
WINCHESTER     MOSUNNY   68  45  42 N5        30.01S
$$

VAZ048-049-060>072-079>083-300000-
CENTRAL AND SOUTH CENTRAL VIRGINIA...AND NORTH CENTRAL NORTH CAROLINA

CITY           SKY/WX    TMP DP  RH WIND       PRES   REMARKS
RICHMOND       PTSUNNY   78  53  41 N10       29.96R
CHESTERFIELD*  CLOUDY    75  52  43 N5        29.98R
HANOVER        PTSUNNY   76  53  44 NW5       29.98R
TAPPAHANNOCK*  MOSUNNY   73  54  50 CALM      29.98R
CHARLOTTSVILLE CLOUDY    71  56  58 N3        29.98R
ORANGE*        PTSUNNY   70  54  56 N5        30.00R
LOUISA*        PTSUNNY   73  57  56 N3        29.97R
FARMVILLE*     CLOUDY    73  57  56 NE6       29.95R
SOUTH HILL*    MOSUNNY   79  55  44 CALM      30.01R
ROANOKE RAPIDS NOT AVBL
RALEIGH        MOSUNNY   78  59  51 NE5       29.95R
$$

VAZ088>098-300000-
SOUTHEAST VIRGINIA

CITY           SKY/WX    TMP DP  RH WIND       PRES   REMARKS
NORFOLK        SUNNY     75  56  51 E7        29.95S
VIRGINIA BEACH MOSUNNY   76  55  48 NE6       29.95R
NORFOLK NAVAL  MOSUNNY   76  55  48 E7        29.97R
WEST POINT*    MOSUNNY   78  55  44 CALM      29.97R
NEWPORT NEWS   SUNNY     79  58  48 N5        29.95R
LANGLEY AFB    MOSUNNY   77  56  48 S6        29.94S
FORT EUSTIS    SUNNY     77  55  46 NW3       29.94R
WILLIAMSBURG*  SUNNY     79  61  53 CALM      29.96R
FRANKLIN*      SUNNY     79  55  44 CALM      29.95S
WAKEFIELD      SUNNY     78  60  53 CALM      29.95S
$$

VAZ020-022-025-037-045-300000-
WESTERN AND SOUTHWEST VIRGINIA

CITY           SKY/WX    TMP DP  RH WIND       PRES   REMARKS
STAUNTON*      CLOUDY    70  53  53 NE3       30.02R
HOT SPRINGS VA PTSUNNY   58  47  67 N8        30.10R
LYNCHBURG      PTSUNNY   73  59  61 CALM      29.98S
DANVILLE       PTSUNNY   79  57  46 S3        29.96R
MARTINSVILLE   CLOUDY    75  62  62 CALM      29.99R
ROANOKE        PTSUNNY   75  50  41 NW10      29.99R
BLACKSBURG     SUNNY     72  54  53 NW7         N/A
DUBLIN*        SUNNY     72  52  49 NW6       30.04R
MARION*        PTSUNNY   68  53  58 N8        30.08R
HILLSVILLE*    PTSUNNY   69  49  49 W7        30.04S
RICHLANDS*     PTCLDY    66  51  59 NW9       30.08S
WISE*          SUNNY     64  46  52 NW6       30.11S
ABINGDON*      MOSUNNY   70  53  54 N7        30.06R
$$

MDZ021>025-VAZ099-100-300000-
SOUTHERN MARYLAND AND THE DELMARVA PENINSULA

CITY           SKY/WX    TMP DP  RH WIND       PRES   REMARKS
PATUXENT RIVER MOSUNNY   74  49  41 NW12      29.96R
BAY BRIDGE APT   N/A     73  48  40 W9G16     29.96R
LEONARDTOWN    SUNNY     72  48  43 NW6       29.98R
DOVER          SUNNY     73  56  56 W8        29.94R
GEORGETOWN     SUNNY     73  51  46 S6        29.96R
EASTON         MOSUNNY   73  55  53 NW6       30.00R
CAMBRIDGE      SUNNY     73  48  40 NW7       29.96R
SALISBURY      NOT AVBL
OCEAN CITY     SUNNY     73  62  68 CALM      29.95R
WALLOPS ISLAND SUNNY     76  53  44 NW9       29.96R
ACCOMACK*        N/A     73  54  49 NW3       29.96R
$$

NCZ012>017-030>032-300000-
EASTERN NORTH CAROLINA

CITY           SKY/WX    TMP DP  RH WIND       PRES   REMARKS
ELIZABETH CITY PTSUNNY   75  62  64 E12       29.95R
AHOSKIE*       SUNNY     75  60  58 CALM      29.95S
EDENTON*       MOSUNNY   77  66  69 E7        29.94S
CURRITUCK*     SUNNY     76  58  51 E6        29.96S
KILL DEVIL HLS SUNNY     75  63  65 NE7       29.94S
MANTEO         NOT AVBL
CAPE HATTERAS  MOSUNNY   77  66  68 NE9       29.92F
GOLDSBORO      MOSUNNY   79  64  58 NE9       29.92S
WASHINGTON     SUNNY     78  61  54 N7        29.95R
GREENVILLE     SUNNY     81  59  47 N6        29.96F
NEW BERN       MOSUNNY   82  63  52 N9        29.93S
WILMINGTON     MOSUNNY   81  68  64 E5        29.91S
$$

VAZ048-300000-
ELSEWHERE

CITY           SKY/WX    TMP DP  RH WIND       PRES   REMARKS
HARRISBURG PA  PTSUNNY   70  48  45 N9        29.97R
BALTIMORE      PTSUNNY   73  51  46 W12       29.96R
ANNAPOLIS      SUNNY     73  53  49 W5        29.96R
ANDREWS AFB    SUNNY     73  49  43 NW12      29.98R
WILMINGTON DE  CLOUDY    71  58  63 NW8       29.96R
PHILADELPHIA   CLOUDY    74  53  48 NW9       29.95R
WILDWOOD NJ*   MOSUNNY   73  55  53 SW8       29.96R
ATLANTIC CITY  CLOUDY    73  55  53 NW5       29.94R
HENDERSON NC   SUNNY     77  55  46 E3        29.96S
GREENSBORO     PTSUNNY   78  55  44 W5        29.95S
ROCKY MOUNT    SUNNY     80  58  46 CALM      29.95S
FAYETTEVILLE   PTSUNNY   80  61  52 NE5       29.92S
CHARLOTTE      MOSUNNY   81  54  39 W5        29.96S
$$

VAZ100-300000-
MARINE

STATION/POSITION TIME  TEMP    WIND        PRES    WAVE   SWELL
                       AIR SEA DIR/SP/G            HT/PER HT/PER
                 (UTC) (F)     (DEG/KT/KT) (MB)    (FT/S) (FT/S)
44066 TX TWR #4  2300   72 75  270/  4/  4 1013.8R   3/ 8   3/ 8
CAPE MAY NJ      2300   72 80  200/  6/  7 1013.8R
LEWES DE         2300   73 74  170/  4/  6 1013.8S
15NM E FENWICK I 2300   72 75              1014.5R   2/ 8
OCEAN-CITY-INLET 2300   73 74  170/  6/  9 1013.7S
WACHAPREAGUE VA  2300   75 81  340/  4/  7 1014.3R
THOMAS POINT MD  2300   73 78  310/ 11/ 13 1015.1R
GOOSES REEF MD   2300   74     340/ 10/ 14 1014.9R
COVE POINT MD    2300   73     350/ 12/ 15 1014.3R
SOLOMONS ISLAND  2300      80                N/A
BISHOPS HEAD MD  2300   74 78  320/ 12/ 15 1014.0R
PINEY POINT MD   2300          350/ 13/ 14   N/A
POTOMAC MD       2300   75      10/  8/ 12 1013.7R
CAMBRIDGE MD     2300   73 79  300/  9/ 15 1014.1S
LEWISETTA VA     2300   75 78  350/  7/ 11 1014.2S
RAPPAHANNOCK LGT 2300          360/  4/  6 1015.0R
STINGRAY PT      2300   76      30/  8/ 10 1015.0S
YORK RVR RNG VA  2300   76      90/  8/  9 1013.7S
YORKTOWN VA      2300   78 80  330/  5/  6 1013.8S
JAMESTOWN VA     2300   76     310/  4/  6   N/A
DOMINION TERM VA 2300   76      80/  7/ 10 1014.2R
KIPTOPEKE VA     2300      82   20/  3/  5   N/A
CHES BAY BRIDGE  2300   75 78   70/  3/  5 1013.7S
CAPE HENRY VA    2300   76      10/  5/  7 1013.1R
WILLOUBY STN VA  2300          100/  6/  7 1013.5S
S CRANEY ISL VA  2300           30/  6/  8 1014.1R
CAPE HENRY BUOY  2200      78                N/A     2/ 8
1ST LANDING BUOY 2300   76      50/  4/  4 1014.0R
CAPE CHARLES BUO 2300      77                N/A     2/ 8
OFFSHORE WE BUOY 2200      78                N/A     2/ 8
64NM E OF VA BCH 2300   74 79   10/  8/ 12 1014.0S   2/ 8   2/ 8
DUCK PIER NC     2300   74 72   40/ 10/ 11 1013.5S
44056 DUCK FRF   2200                        N/A     2/ 4
OREGON INLET NC  2300   76 78   40/ 10/ 15 1013.6F
HATTERAS NC      2300   77 81   50/  8/ 14 1013.5R
DIAMOND SHLS NC  2300          VRB 14/ 17  1012.5F   4/ 8   2/ 8
CAPE LOOKOUT NC  2200   78      50/ 12/ 13 1012.6F
$$



USA.gov is the U.S. government's official web portal to all federal, state and local government web resources and services.